Tracking 18980 objects as of 18-Feb-2018
HD Live streaming from Space Station
objects crossing your sky now

COSMOS 2247

Track COSMOS 2247 now!
10-day predictions
COSMOS 2247 is classified as:


NORAD ID: 22648
Int'l Code: 1993-030C
Perigee: 1,410.4 km
Apogee: 1,423.5 km
Inclination: 82.6 °
Period: 114.0 minutes
Semi major axis: 7787 km
RCS: 1.2094 m2 (large)
Launch date: May 11, 1993
Source: Commonwealth of Independent States (former USSR) (CIS)
Launch site: PLESETSK MISSILE AND SPACE COMPLEX (PKMTR)
aabbcc
Your satellite tracking list
Your tracking list is empty




NASA's NSSDC Master Catalog

Two Line Element Set (TLE):
1 22648U 93030C   18048.84299140 +.00000031 +00000-0 +11542-3 0  9995
2 22648 082.5775 099.5682 0008450 006.7267 045.1896 12.63188406142089
Source of the keplerian elements: AFSPC